SCP
0 0 0 0 0 0 0 0 0 0 0 0 0 0 0 0 0 0 0 0 0 0 0 0 0 0 0 0 0 0 0 0 0 0 0 0 0 0 0 0 0 0 0 0
0 0 0 0 0 0 0 0 0 0 0 0 0 0 0 0 0 0 0 0 0 0 0 0 0 0 0 0 0 0 0 0 0 0 0 0 0 0 0 0 0 0 0 0
0 0 0 0 0 0 0 0 0 0 0 0 0 0 0 0 0 0 0 0 0 0 0 0 0 0 0 0 0 0 0 0 0 0 0 0 0 0 0 0 0 0 0 0
0 0 0 0 0 0 0 0 0 0 0 0 0 0 0 0 0 0 0 0 0 0 0 0 0 0 0 0 0 0 0 0 0 0 0 0 0 0 0 0 0 0 0 0
0 0 0 0 0 0 0 0 0 0 0 0 0 0 0 0 0 0 0 0 0 0 0 0 0 0 0 0 0 0 0 0 0 0 0 0 0 0 0 0 0 0 0 0
0 0 0 0 0 0 0 0 0 0 0 0 0 0 0 0 0 0 0 0 0 0 0 0 0 0 0 0 0 0 0 0 0 0 0 0 0 0 0 0 0 0 0 0
0 0 0 0 0 0 0 0 0 0 0 0 0 0 0 0 0 0 0 0 0 0 0 0 0 0 0 0 0 0 0 0 0 0 0 0 0 0 0 0 0 0 0 0
0 0 0 0 0 0 0 0 0 0 0 0 0 0 0 0 0 0 0 0 0 0 0 0 0 0 0 0 0 0 0 0 0 0 0 0 0 0 0 0 0 0 0 0
0 0 0 0 0 0 0 0 0 0 0 0 0 0 0 0 0 0 0 0 0 0 0 0 0 0 0 0 0 0 0 0 0 0 0 0 0 0 0 0 0 0 0 0
0 0 0 0 0 0 0 0 0 0 0 0 0 0 0 0 0 0 0 0 0 0 0 0 0 0 0 0 0 0 0 0 0 0 0 0 0 0 0 0 0 0 0 0
0 0 0 0 0 0 0 0 0 0 0 0 0 0 0 0 0 0 0 0 0 0 0 0 0 0 0 0 0 0 0 0 0 0 0 0 0 0 0 0 0 0 0 0
0 0 0 0 0 0 0 0 0 0 0 0 0 0 0 0 0 0 0 0 0 0 0 0 0 0 0 0 0 0 0 0 0 0 0 0 0 0 0 0 0 0 0 0
0 0 0 0 0 0 0 0 0 0 0 0 0 0 0 0 0 0 0 0 0 0 0 0 0 0 0 0 0 0 0 0 0 0 0 0 0 0 0 0 0 0 0 0
0 0 0 0 0 0 0 0 0 0 0 0 0 0 0 0 0 0 0 0 0 0 0 0 0 0 0 0 0 0 0 0 0 0 0 0 0 0 0 0 0 0 0 0
0 0 0 0 0 0 0 0 0 0 0 0 0 0 0 0 0 0 0 0 0 0 0 0 0 0 0 0 0 0 0 0 0 0 0 0 0 0 0 0 0 0 0 0
0 0 0 0 0 0 0 0 0 0 0 0 0 0 0 0 0 0 0 0 0 0 0 0 0 0 0 0 0 0 0 0 0 0 0 0 0 0 0 0 0 0 0 0
0 0 0 0 0 0 0 0 0 0 0 0 0 0 0 0 0 0 0 0 0 0 0 0 0 0 0 0 0 0 0 0 0 0 0 0 0 0 0 0 0 0 0 0
0 0 0 0 0 0 0 0 0 0 0 0 0 0 0 0 0 0 0 0 0 0 0 0 0 0 0 0 0 0 0 0 0 0 0 0 0 0 0 0 0 0 0 0
0 0 0 0 0 0 0 0 0 0 0 0 0 0 0 0 0 0 0 0 0 0 0 0 0 0 0 0 0 0 0 0 0 0 0 0 0 0 0 0 0 0 0 0
0 0 0 0 0 0 0 0 0 0 0 0 0 0 0 0 0 0 0 0 0 0 0 0 0 0 0 0 0 0 0 0 0 0 0 0 0 0 0 0 0 0 0 0
0 0 0 0 0 0 0 0 0 0 0 0 0 0 0 0 0 0 0 0 0 0 0 0 0 0 0 0 0 0 0 0 0 0 0 0 0 0 0 0 0 0 0 0
0 0 0 0 0 0 0 0 0 0 0 0 0 0 0 0 0 0 0 0 0 0 0 0 0 0 0 0 0 0 0 0 0 0 0 0 0 0 0 0 0 0 0 0
0 0 0 0 0 0 0 0 0 0 0 0 0 0 0 0 0 0 0 0 0 0 0 0 0 0 0 0 0 0 0 0 0 0 0 0 0 0 0 0 0 0 0 0
0 0 0 0 0 0 0 0 0 0 0 0 0 0 0 0 0 0 0 0 0 0 0 0 0 0 0 0 0 0 0 0 0 0 0 0 0 0 0 0 0 0 0 0
0 0 0 0 0 0 0 0 0 0 0 0 0 0 0 0 0 0 0 0 0 0 0 0 0 0 0 0 0 0 0 0 0 0 0 0 0 0 0 0 0 0 0 0
0 0 0 0 0 0 0 0 0 0 0 0 0 0 0 0 0 0 0 0 0 0 0 0 0 0 0 0 0 0 0 0 0 0 0 0 0 0 0 0 0 0 0 0
0 0 0 0 0 0 0 0 0 0 0 0 0 0 0 0 0 0 0 0 0 0 0 0 0 0 0 0 0 0 0 0 0 0 0 0 0 0 0 0 0 0 0 0
Wind_Speed
10 10 6 8 11 10 14 15 15 19 21 27 23 12 10 10 10 9 10 10 10 11 11 11 12 13 14 14 14 14 14 14 14 11 10 9 8 8 7 7 7 6 7 7
7 8 9 10 16 18 18 16 19 23 26 26 19 9 9 10 10 10 11 11 11 11 11 13 14 15 14 15 15 14 15 15 12 10 10 10 9 8 7 7 6 6 7 8
7 5 5 10 15 17 11 10 11 18 22 17 12 11 10 10 9 10 11 11 11 11 12 14 15 15 16 16 14 15 15 13 12 12 12 11 10 9 9 7 6 7 7 7
4 1 12 13 5 8 11 13 14 16 18 14 11 8 8 9 10 12 11 11 10 9 10 11 11 12 12 11 14 15 15 14 13 13 12 10 9 10 9 7 6 6 7 8
3 6 13 10 9 7 8 12 11 16 20 15 6 6 9 8 7 10 10 10 9 8 8 7 9 10 11 13 14 15 16 15 15 14 13 11 11 11 9 7 7 7 6 7
5 6 12 9 4 2 1 10 8 6 10 6 2 3 7 6 4 6 8 8 8 7 6 7 8 9 12 14 15 18 18 16 14 14 14 14 13 11 8 7 7 6 6 6
8 10 14 10 3 4 5 10 4 2 3 2 5 8 8 8 8 8 9 10 9 8 8 9 7 10 13 15 19 17 13 12 13 14 14 13 10 9 8 7 6 6 6 5
7 8 15 7 6 9 9 4 5 5 5 5 8 10 11 11 11 10 11 11 9 8 10 8 7 11 14 18 15 10 11 13 13 13 12 11 10 9 8 8 7 6 5 5
13 13 6 5 9 8 4 7 8 7 8 8 9 11 12 11 11 10 11 10 9 8 10 8 8 12 17 15 9 11 12 13 12 12 12 11 11 10 8 8 6 6 5 5
9 11 10 9 8 10 10 11 10 10 11 9 11 13 14 12 10 10 10 10 8 8 10 11 9 12 16 9 10 13 14 13 12 13 12 11 10 9 9 8 7 6 6 5
16 12 11 11 10 9 8 9 11 12 11 10 11 12 11 11 10 10 9 9 8 8 11 13 10 11 12 9 12 14 14 13 13 13 12 12 11 10 10 9 9 8 7 5
25 16 14 13 10 13 14 13 12 12 10 9 8 9 10 9 9 9 10 9 9 10 11 13 10 11 10 10 13 14 13 13 11 10 10 10 9 9 15 13 16 17 14 10
24 19 17 16 11 10 10 9 9 9 8 9 8 7 8 8 8 9 10 11 11 11 12 12 11 11 9 11 13 15 14 13 11 11 11 11 11 10 9 11 15 16 16 15
14 13 15 13 11 8 8 8 6 6 6 6 6 7 8 8 9 11 12 12 11 12 13 11 11 11 8 10 13 14 13 15 14 11 11 11 11 10 9 9 8 7 10 14
11 10 10 8 5 4 4 4 5 6 7 8 7 8 9 10 12 13 13 12 11 12 13 11 11 12 7 10 13 14 13 10 11 10 10 10 9 9 8 9 8 6 4 6
7 4 3 2 2 3 4 4 5 7 7 8 9 10 11 12 12 13 13 11 11 14 14 12 13 11 7 9 12 11 11 18 15 10 10 10 10 9 9 9 8 7 7 6
2 1 2 2 2 3 3 4 5 7 8 10 11 12 12 13 13 13 13 12 11 13 13 12 13 10 7 9 11 9 9 13 21 12 10 10 10 10 10 9 9 8 7 9
4 3 2 2 2 4 6 7 8 9 9 11 12 11 12 13 14 15 14 14 13 14 13 11 10 9 7 8 9 8 9 9 10 10 10 10 10 10 9 9 9 9 6 8
2 2 2 3 5 6 7 8 9 9 10 11 11 13 13 13 14 14 13 12 13 15 12 9 14 10 7 9 11 7 9 10 10 10 10 14 13 9 9 9 9 9 8 7
3 4 5 6 6 7 8 9 10 10 11 11 12 13 14 14 13 13 12 12 11 11 10 12 11 8 7 8 12 7 10 11 11 11 11 11 11 10 10 9 9 9 8 8
6 6 7 8 9 9 10 10 11 13 12 11 12 14 15 15 13 12 12 13 12 11 10 14 9 6 6 7 12 8 10 11 11 11 11 11 11 11 10 10 9 9 9 8
6 7 9 10 11 12 11 10 11 13 13 13 13 13 14 15 14 12 11 11 12 16 11 7 6 9 10 10 7 8 10 11 10 10 10 10 11 11 11 11 10 9 8 8
8 8 10 11 12 13 13 12 12 12 13 13 14 15 15 14 11 12 13 10 9 15 11 8 11 16 15 8 6 9 10 11 11 10 10 10 10 10 10 11 9 9 8 8
9 10 11 11 11 12 14 13 12 11 12 13 13 13 13 12 11 9 10 15 19 20 11 12 18 17 15 5 7 8 10 10 10 10 10 10 9 9 9 9 9 8 8 9
11 11 11 11 11 11 12 12 12 12 12 10 12 12 11 9 11 12 11 12 17 18 11 13 17 16 9 5 7 9 9 10 10 10 10 10 9 9 9 8 9 8 8 8
11 10 10 10 10 10 10 9 10 10 11 12 11 10 9 9 10 11 10 11 13 16 11 8 7 8 5 6 7 9 9 11 13 11 10 10 10 9 9 9 10 8 8 8
10 9 8 9 9 8 8 9 10 11 11 12 14 12 11 11 10 11 11 10 9 9 8 7 6 5 5 5 7 8 9 9 10 9 10 9 9 9 9 9 8 8 7 8
Wind_Direction
254 262 246 241 247 229 217 223 236 254 256 267 272 269 257 259 266 267 261 251 239 232 227 218 214 211 208 205 198 193 193 198 203 200 196 197 203 208 214 222 236 242 253 261
272 261 248 253 253 248 241 236 241 258 267 266 276 276 265 264 265 265 261 255 248 238 230 223 218 214 209 206 199 193 197 201 197 189 192 198 203 207 215 225 235 244 253 261
264 281 317 264 238 235 227 217 214 242 255 270 278 270 262 264 260 256 260 262 256 244 234 229 221 212 210 205 194 195 200 198 192 190 196 201 203 208 218 225 233 244 252 258
259 299 240 245 233 223 235 247 229 245 260 268 264 277 269 254 253 263 263 264 262 253 244 235 223 212 207 195 194 198 201 197 192 190 196 196 199 212 218 220 229 240 250 257
204 243 268 286 272 217 217 269 243 242 261 273 298 316 293 265 235 246 259 264 265 261 252 241 221 204 192 197 198 201 203 200 194 191 191 192 203 214 215 216 228 235 244 253
197 226 250 253 251 170 133 285 280 246 264 293 67 327 284 302 307 284 283 282 281 279 264 247 226 190 193 203 203 209 207 201 192 189 190 196 204 208 207 213 227 234 243 246
219 237 259 259 243 141 213 254 305 337 305 288 214 233 263 300 302 293 290 287 283 275 262 250 216 190 205 210 215 213 200 190 187 189 193 196 197 200 202 211 221 230 243 249
196 221 254 236 159 198 231 301 317 318 310 289 268 273 281 285 285 288 289 288 284 274 267 255 210 200 215 223 220 194 184 186 188 188 189 191 192 197 200 205 218 230 239 252
205 226 254 193 212 245 286 287 287 290 293 292 285 283 284 283 283 286 284 283 279 268 271 262 220 209 226 230 198 180 183 189 187 185 189 187 189 194 196 202 212 223 226 243
253 255 263 266 255 259 259 260 272 280 285 285 280 282 286 287 287 286 284 282 280 276 272 270 241 223 232 222 182 182 188 189 186 185 188 190 191 194 196 198 204 213 220 230
265 269 277 260 257 266 279 288 291 289 287 283 279 280 281 286 287 286 286 286 283 274 272 272 259 237 231 205 183 189 191 189 188 189 189 191 196 199 199 203 198 200 208 210
267 270 270 280 281 286 287 288 290 294 297 298 291 284 288 289 288 288 290 290 288 281 275 276 269 252 229 200 191 191 193 192 190 188 187 189 192 201 215 211 219 221 217 210
262 270 271 281 284 283 283 290 295 296 296 299 301 296 293 291 291 294 294 295 293 289 284 282 275 263 233 201 196 197 197 191 189 188 188 188 189 191 196 212 220 224 226 227
262 272 277 281 285 294 297 302 308 313 313 306 302 304 302 297 299 301 297 295 295 293 289 286 278 268 238 204 201 203 200 196 191 189 188 189 189 190 187 185 193 211 223 224
265 265 272 286 304 327 335 346 354 343 332 324 316 311 308 305 301 297 296 296 296 293 291 288 281 275 241 205 203 203 199 197 191 185 185 188 186 186 185 186 189 186 179 214
276 289 303 338 0 353 357 1 347 325 315 308 306 303 299 293 290 291 292 293 294 295 296 293 285 278 245 210 205 203 201 202 191 184 183 185 184 186 186 187 186 187 192 193
258 322 17 17 357 338 321 305 295 293 295 296 294 295 296 296 296 295 297 296 290 288 287 284 283 281 250 213 203 200 194 200 199 191 188 187 187 189 188 186 187 190 194 191
130 144 159 198 264 290 296 293 288 289 289 287 291 293 296 297 297 297 298 299 300 298 293 282 278 279 255 220 205 198 191 191 190 185 186 189 190 191 188 188 188 187 182 194
141 175 220 247 259 266 272 280 283 284 287 289 291 292 291 290 289 290 293 296 297 298 296 294 300 293 260 226 208 196 190 189 190 185 184 193 195 192 190 191 188 186 181 182
250 254 260 268 272 273 281 286 289 290 290 291 292 294 294 293 293 294 294 290 282 277 281 291 295 284 261 234 215 194 191 190 190 188 186 189 190 191 192 192 188 184 183 184
276 281 288 293 296 294 290 291 293 295 295 292 291 292 293 294 294 293 293 295 291 286 287 293 291 274 255 237 218 195 192 191 192 190 189 190 190 191 191 191 189 187 186 185
285 290 295 298 298 298 295 292 291 293 294 293 291 291 294 296 295 291 279 277 284 292 295 285 280 274 268 247 211 194 193 193 193 190 189 189 190 191 191 191 190 189 185 181
281 285 289 290 291 293 295 294 290 290 291 292 293 294 292 290 291 292 295 290 287 293 294 279 280 282 277 249 206 197 194 193 193 192 191 191 191 192 191 190 189 186 181 177
283 284 283 285 289 292 294 293 290 288 286 286 284 283 284 289 288 277 276 288 294 297 292 285 287 285 278 237 202 197 194 193 192 191 191 190 190 190 190 187 184 181 178 175
274 278 281 286 289 289 289 293 295 292 290 289 286 283 278 275 279 286 287 287 290 296 292 289 289 285 271 228 203 195 190 190 189 189 190 187 188 189 189 186 182 179 178 177
272 275 277 275 277 283 287 289 292 294 296 297 295 291 287 284 280 282 284 283 283 289 289 283 277 273 257 228 205 192 187 190 195 194 188 185 186 185 186 184 179 178 176 174
271 273 277 280 279 275 276 281 287 290 291 293 296 297 294 292 290 288 287 287 286 283 281 277 269 259 245 222 202 190 184 184 185 183 181 182 182 184 183 179 177 174 170 169